sat.trackr.live / text

‹ back to catalog

STARLINK-5792

NORAD 56035 · 2023-042BB

PAYLOAD ACTIVE UNKNOWN

§ Identity

Operator
Country
US
Launch date
2023-03-24
Launch site
AFETR
Launch vehicle
Mass (kg)
RCS (m²)

Purposes: comms

External: N2YO · Heavens-Above · Gunter

§ Orbital elements

Epoch: 2026-05-24T17:20:44.240064Z

Period
94.27 min
Inclination
43.0057°
Eccentricity
0.0001491
Mean motion
15.27582223 rev/d
Perigee alt
482.0 km
Apogee alt
484.1 km
Semi-major
6,861.2 km
B*
1.3371e-5
RAAN
335.8343°
Arg perigee
276.1520°
Mean anomaly
83.9162°
Rev number
17,466

§ Raw data

STARLINK-57921 56035U 23042BB  26144.72273426  .00000106  00000+0  13371-4 0  99952 56035  43.0057 335.8343 0001491 276.1520  83.9162 15.27582223174667

JSON: /api/v1/satellites/56035 · /tle

For live sub-satellite position, see the globe view (requires WebGL).

§ Visibility from observer

Set your observer location to see the next 7 days of passes ≥ 10°. The values pass through the URL so the page stays shareable.

No JS? Fill the form by hand. The geolocation button needs JavaScript.